Location: Miami
(39.3214°N, 93.2282°W)
Time: 00:31:33
(UTC+00:00)

ISS - Visible Passes

Search period start: 20 June 2024 00:00
Search period end: 30 June 2024 00:00
Orbit: 411 x 425 km, 51.6° (Epoch: 19 June)

Date Brightness Start Highest point End Pass type
(mag) Time Alt. Az. Time Alt. Az. Time Alt. Az.
21 Jun -2.0 09:32:17 13° S 09:34:30 23° SE 09:37:14 10° ENE visible
22 Jun -1.4 08:46:13 13° SE 08:46:41 13° SE 08:48:21 10° E visible
23 Jun -3.8 09:32:58 21° SW 09:35:02 74° SE 09:38:23 10° NE visible
24 Jun -3.1 08:46:43 38° SSE 08:47:02 39° SE 08:50:11 10° ENE visible
25 Jun -1.5 08:00:23 18° E 08:00:23 18° E 08:01:44 10° E visible
25 Jun -2.7 09:33:18 15° W 09:35:41 38° NNW 09:38:51 10° NE visible
26 Jun -3.6 08:46:53 50° W 08:47:30 65° NW 08:50:50 10° NE visible
27 Jun -2.6 08:00:23 40° ENE 08:00:23 40° ENE 08:02:41 10° NE visible
27 Jun -1.5 09:33:55 10° WNW 09:36:26 19° NNW 09:38:56 10° NNE visible
28 Jun -0.9 07:13:49 14° ENE 07:13:49 14° ENE 07:14:22 10° ENE visible
28 Jun -2.0 08:46:43 20° WNW 08:48:05 26° NNW 08:50:58 10° NNE visible
29 Jun -2.5 08:00:05 39° NNW 08:00:05 39° NNW 08:02:56 10° NE visible
29 Jun -0.9 09:35:42 10° NW 09:37:14 13° NNW 09:38:46 10° NNE visible
